TimeCST,TemperatureF,Dew PointF,Humidity,Sea Level PressureIn,VisibilityMPH,Wind Direction,Wind SpeedMPH,Gust SpeedMPH,PrecipitationIn,Events,Conditions,WindDirDegrees,DateUTC
12:53 AM,39.0,39.0,100,29.94,0.2,Calm,Calm,-,N/A,Fog,Fog,0,2013-02-22 06:53:00
1:27 AM,39.2,39.2,100,29.94,0.2,Calm,Calm,-,N/A,Fog,Fog,0,2013-02-22 07:27:00
1:53 AM,39.0,39.0,100,29.97,0.2,West,3.5,-,N/A,Fog,Fog,260,2013-02-22 07:53:00
2:53 AM,39.0,39.0,100,29.95,0.2,Calm,Calm,-,N/A,Fog,Fog,0,2013-02-22 08:53:00
3:42 AM,39.2,39.2,100,29.96,0.5,NW,3.5,-,N/A,Fog,Fog,320,2013-02-22 09:42:00
3:53 AM,39.9,39.9,100,29.97,0.5,NW,4.6,-,N/A,Fog,Fog,320,2013-02-22 09:53:00
4:53 AM,39.0,39.0,100,29.99,1.5,NNW,4.6,-,N/A,,Overcast,340,2013-02-22 10:53:00
4:57 AM,39.2,39.2,100,29.99,4.0,North,3.5,-,N/A,,Overcast,350,2013-02-22 10:57:00
5:11 AM,37.4,37.4,100,30.01,6.0,NW,3.5,-,N/A,,Mostly Cloudy,320,2013-02-22 11:11:00
5:17 AM,37.4,37.4,100,30.02,8.0,WNW,4.6,-,N/A,,Mostly Cloudy,300,2013-02-22 11:17:00
5:48 AM,39.2,37.4,93,30.03,10.0,NW,4.6,-,N/A,,Overcast,310,2013-02-22 11:48:00
5:53 AM,39.0,37.9,96,30.03,10.0,NW,4.6,-,N/A,,Overcast,320,2013-02-22 11:53:00
6:35 AM,37.4,35.6,93,30.04,10.0,Calm,Calm,-,N/A,,Scattered Clouds,0,2013-02-22 12:35:00
6:53 AM,36.0,35.1,97,30.05,9.0,Calm,Calm,-,N/A,,Clear,0,2013-02-22 12:53:00
7:53 AM,37.9,37.0,97,30.08,6.0,Calm,Calm,-,N/A,,Clear,0,2013-02-22 13:53:00
8:53 AM,39.9,37.9,93,30.11,8.0,NW,9.2,-,N/A,,Partly Cloudy,320,2013-02-22 14:53:00
9:03 AM,39.2,37.4,93,30.10,7.0,NW,10.4,-,N/A,,Mostly Cloudy,320,2013-02-22 15:03:00
9:53 AM,39.9,37.0,89,30.10,9.0,NW,9.2,-,N/A,,Mostly Cloudy,310,2013-02-22 15:53:00
10:42 AM,41.0,37.4,87,30.10,10.0,NW,6.9,-,N/A,,Overcast,320,2013-02-22 16:42:00
10:53 AM,42.1,37.0,82,30.11,10.0,NW,5.8,-,N/A,,Mostly Cloudy,310,2013-02-22 16:53:00
11:23 AM,42.8,35.6,76,30.09,10.0,North,5.8,-,N/A,,Scattered Clouds,350,2013-02-22 17:23:00
11:53 AM,46.9,37.9,71,30.08,10.0,North,6.9,-,N/A,,Partly Cloudy,360,2013-02-22 17:53:00
12:53 PM,48.0,37.0,66,30.06,10.0,Variable,4.6,-,N/A,,Clear,0,2013-02-22 18:53:00
1:53 PM,50.0,37.0,61,30.02,10.0,NW,6.9,-,N/A,,Clear,320,2013-02-22 19:53:00
2:53 PM,50.0,37.0,61,30.00,10.0,North,8.1,-,N/A,,Clear,360,2013-02-22 20:53:00
3:53 PM,50.0,36.0,59,30.00,10.0,NE,4.6,-,N/A,,Clear,40,2013-02-22 21:53:00
4:53 PM,50.0,36.0,59,30.01,10.0,Calm,Calm,-,N/A,,Clear,0,2013-02-22 22:53:00
5:53 PM,48.0,37.9,68,30.02,10.0,SE,3.5,-,N/A,,Clear,130,2013-02-22 23:53:00
6:53 PM,45.0,37.9,76,30.04,10.0,Calm,Calm,-,N/A,,Partly Cloudy,0,2013-02-23 00:53:00
7:53 PM,41.0,37.9,89,30.05,10.0,Calm,Calm,-,N/A,,Clear,0,2013-02-23 01:53:00
8:53 PM,42.1,37.9,85,30.07,10.0,North,8.1,-,N/A,,Clear,350,2013-02-23 02:53:00
9:53 PM,41.0,36.0,82,30.08,10.0,North,4.6,-,N/A,,Clear,360,2013-02-23 03:53:00
10:53 PM,39.0,35.1,86,30.08,10.0,ENE,3.5,-,N/A,,Clear,60,2013-02-23 04:53:00
11:53 PM,36.0,34.0,93,30.07,10.0,Calm,Calm,-,N/A,,Clear,0,2013-02-23 05:53:00